Location: ?ejeti?ky
(50.4060°N, 14.9016°E)
Time: 00:23:03
(UTC+00:00)

STARLINK-1282 - Pass Details

Date: 01 October 2020
Orbit: 549 x 551 km, 53.0° (Epoch: 27 October)

Event Time Altitude Azimuth Distance (km) Brightness Sun altitude
Rises 04:18:08 0° 213° (SSW) 2,706 6.8 -7.7°
Reaches altitude 10° 04:20:32 10° 203° (SSW) 1,817 6.0 -7.3°
Maximum altitude 04:24:09 30° 141° (SE) 1,000 5.4 -6.7°
Drops below altitude 10° 04:27:48 10° 80° (E) 1,828 8.1 -6.1°
Sets 04:30:13 0° 70° (ENE) 2,725 8.8 -5.7°
